TimeEST,TemperatureF,Dew PointF,Humidity,Sea Level PressureIn,VisibilityMPH,Wind Direction,Wind SpeedMPH,Gust SpeedMPH,PrecipitationIn,Events,Conditions,WindDirDegrees,DateUTC
12:15 AM,12.4,-4.5,47,30.19,10.0,WNW,12.7,20.7,N/A,,Scattered Clouds,290,2013-01-22 05:15:00
12:35 AM,12.0,-4.2,48,30.20,10.0,West,12.7,18.4,N/A,,Mostly Cloudy,280,2013-01-22 05:35:00
12:55 AM,11.8,-5.1,47,30.20,10.0,WNW,12.7,23.0,N/A,,Scattered Clouds,290,2013-01-22 05:55:00
1:15 AM,11.5,-4.9,48,30.20,10.0,West,10.4,-,N/A,,Scattered Clouds,270,2013-01-22 06:15:00
1:35 AM,11.3,-3.1,52,30.20,10.0,West,13.8,18.4,N/A,,Scattered Clouds,280,2013-01-22 06:35:00
1:55 AM,11.3,-3.3,52,30.21,10.0,West,12.7,-,N/A,,Scattered Clouds,270,2013-01-22 06:55:00
2:15 AM,11.3,-3.3,52,30.21,10.0,West,12.7,18.4,N/A,,Mostly Cloudy,270,2013-01-22 07:15:00
2:55 AM,11.1,-2.4,55,30.22,10.0,West,11.5,-,N/A,,Scattered Clouds,270,2013-01-22 07:55:00
3:15 AM,10.9,-2.0,56,30.22,10.0,West,12.7,-,N/A,,Scattered Clouds,270,2013-01-22 08:15:00
3:35 AM,10.4,-1.7,58,30.22,10.0,West,9.2,-,N/A,,Clear,260,2013-01-22 08:35:00
3:55 AM,10.2,-1.7,59,30.22,10.0,West,9.2,-,N/A,,Clear,260,2013-01-22 08:55:00
4:15 AM,10.0,-2.0,58,30.22,10.0,West,12.7,-,N/A,,Clear,270,2013-01-22 09:15:00
4:35 AM,10.2,-4.0,53,30.22,10.0,West,12.7,16.1,N/A,,Clear,270,2013-01-22 09:35:00
4:55 AM,10.0,-3.6,54,30.23,10.0,West,8.1,-,N/A,,Clear,270,2013-01-22 09:55:00
5:15 AM,9.5,-2.6,58,30.23,10.0,West,9.2,-,N/A,,Clear,270,2013-01-22 10:15:00
5:35 AM,9.5,-2.6,58,30.23,10.0,West,11.5,16.1,N/A,,Clear,280,2013-01-22 10:35:00
5:55 AM,9.5,-3.3,56,30.24,10.0,West,12.7,-,N/A,,Clear,280,2013-01-22 10:55:00
6:15 AM,9.5,-3.5,56,30.25,10.0,West,10.4,-,N/A,,Clear,270,2013-01-22 11:15:00
6:35 AM,9.1,-3.5,57,30.26,10.0,West,9.2,-,N/A,,Clear,270,2013-01-22 11:35:00
6:55 AM,9.0,-3.5,57,30.26,10.0,West,10.4,-,N/A,,Clear,280,2013-01-22 11:55:00
7:15 AM,8.6,-3.5,58,30.27,10.0,West,8.1,-,N/A,,Clear,270,2013-01-22 12:15:00
7:35 AM,8.4,-3.1,60,30.28,10.0,West,9.2,-,N/A,,Clear,270,2013-01-22 12:35:00
7:55 AM,8.1,-2.4,62,30.29,10.0,West,9.2,-,N/A,,Scattered Clouds,270,2013-01-22 12:55:00
8:15 AM,8.6,-2.4,61,30.29,10.0,West,10.4,-,N/A,,Mostly Cloudy,270,2013-01-22 13:15:00
8:35 AM,9.3,-2.2,60,30.30,10.0,West,11.5,-,N/A,,Mostly Cloudy,260,2013-01-22 13:35:00
8:55 AM,9.9,-2.0,59,30.31,10.0,West,10.4,-,N/A,,Mostly Cloudy,280,2013-01-22 13:55:00
9:15 AM,10.2,-2.0,58,30.31,10.0,WSW,15.0,18.4,N/A,,Overcast,250,2013-01-22 14:15:00
9:35 AM,10.4,-2.0,57,30.32,10.0,West,12.7,-,N/A,,Overcast,270,2013-01-22 14:35:00
9:55 AM,11.1,-2.0,56,30.33,10.0,West,11.5,-,N/A,,Overcast,260,2013-01-22 14:55:00
10:15 AM,11.7,-2.7,53,30.33,10.0,West,8.1,17.3,N/A,,Mostly Cloudy,270,2013-01-22 15:15:00
10:35 AM,12.4,-2.4,52,30.33,10.0,NW,6.9,-,N/A,,Mostly Cloudy,310,2013-01-22 15:35:00
10:55 AM,12.2,-3.3,50,30.34,10.0,West,11.5,-,N/A,,Mostly Cloudy,280,2013-01-22 15:55:00
11:15 AM,13.3,-3.6,47,30.34,10.0,West,9.2,17.3,N/A,,Scattered Clouds,260,2013-01-22 16:15:00
11:35 AM,14.0,-3.8,45,30.34,10.0,West,11.5,16.1,N/A,,Scattered Clouds,280,2013-01-22 16:35:00
11:55 AM,13.8,-4.5,44,30.33,10.0,WSW,10.4,-,N/A,,Scattered Clouds,250,2013-01-22 16:55:00
12:15 PM,14.4,-4.9,42,30.32,10.0,WNW,11.5,-,N/A,,Scattered Clouds,290,2013-01-22 17:15:00
12:35 PM,14.5,-5.3,41,30.31,10.0,WSW,11.5,-,N/A,,Scattered Clouds,250,2013-01-22 17:35:00
12:55 PM,15.4,-5.6,39,30.31,10.0,WSW,10.4,18.4,N/A,,Scattered Clouds,250,2013-01-22 17:55:00
1:15 PM,15.4,-5.3,40,30.29,10.0,WSW,11.5,17.3,N/A,,Mostly Cloudy,240,2013-01-22 18:15:00
1:35 PM,16.2,-4.9,39,30.29,10.0,West,13.8,-,N/A,,Mostly Cloudy,270,2013-01-22 18:35:00
1:55 PM,16.9,-4.4,39,30.28,10.0,WSW,15.0,20.7,N/A,,Mostly Cloudy,250,2013-01-22 18:55:00
2:55 PM,17.8,-4.9,37,30.27,10.0,West,6.9,-,N/A,,Mostly Cloudy,270,2013-01-22 19:55:00
3:15 PM,18.5,-5.1,35,30.28,10.0,West,12.7,18.4,N/A,,Mostly Cloudy,270,2013-01-22 20:15:00
3:35 PM,18.3,-5.4,35,30.28,10.0,West,18.4,-,N/A,,Mostly Cloudy,270,2013-01-22 20:35:00
3:55 PM,18.1,-5.6,35,30.29,10.0,West,12.7,18.4,N/A,,Mostly Cloudy,270,2013-01-22 20:55:00
4:15 PM,18.3,-5.8,34,30.28,10.0,West,8.1,19.6,N/A,,Mostly Cloudy,280,2013-01-22 21:15:00
4:35 PM,18.7,-6.2,33,30.29,10.0,West,16.1,-,N/A,,Mostly Cloudy,260,2013-01-22 21:35:00
4:55 PM,18.1,-6.5,33,30.29,10.0,West,15.0,-,N/A,,Scattered Clouds,270,2013-01-22 21:55:00
5:15 PM,17.2,-6.0,36,30.29,10.0,West,10.4,-,N/A,,Clear,270,2013-01-22 22:15:00
5:35 PM,16.7,-5.6,37,30.29,10.0,West,13.8,19.6,N/A,,Clear,270,2013-01-22 22:35:00
5:55 PM,16.2,-5.4,38,30.30,10.0,West,10.4,-,N/A,,Clear,280,2013-01-22 22:55:00
6:15 PM,15.8,-5.6,38,30.29,10.0,West,11.5,20.7,N/A,,Clear,280,2013-01-22 23:15:00
6:35 PM,15.8,-6.3,37,30.30,10.0,West,15.0,20.7,N/A,,Clear,270,2013-01-22 23:35:00
6:55 PM,15.6,-5.4,39,30.30,10.0,West,10.4,-,N/A,,Clear,280,2013-01-22 23:55:00
7:15 PM,15.3,-4.7,41,30.29,10.0,West,10.4,-,N/A,,Clear,280,2013-01-23 00:15:00
7:35 PM,15.3,-4.4,42,30.30,10.0,WNW,10.4,-,N/A,,Clear,290,2013-01-23 00:35:00
7:55 PM,15.4,-3.8,42,30.30,10.0,West,9.2,-,N/A,,Clear,280,2013-01-23 00:55:00
8:15 PM,15.3,-3.1,44,30.30,10.0,WNW,6.9,-,N/A,,Clear,290,2013-01-23 01:15:00
8:35 PM,15.3,-2.6,45,30.30,10.0,WNW,8.1,-,N/A,,Clear,290,2013-01-23 01:35:00
8:55 PM,15.1,-2.4,46,30.29,10.0,WNW,8.1,-,N/A,,Clear,290,2013-01-23 01:55:00
9:15 PM,14.9,-2.2,47,30.29,10.0,WNW,6.9,-,N/A,,Clear,290,2013-01-23 02:15:00
9:35 PM,14.9,-2.2,47,30.29,10.0,WNW,6.9,-,N/A,,Clear,290,2013-01-23 02:35:00
9:55 PM,14.9,-1.7,48,30.30,10.0,WNW,5.8,-,N/A,,Clear,290,2013-01-23 02:55:00
10:15 PM,14.9,-1.7,48,30.30,10.0,West,6.9,-,N/A,,Scattered Clouds,280,2013-01-23 03:15:00
10:35 PM,14.7,-1.7,48,30.31,10.0,West,5.8,-,N/A,,Scattered Clouds,280,2013-01-23 03:35:00
10:55 PM,14.9,-1.7,48,30.31,10.0,West,5.8,-,N/A,,Scattered Clouds,280,2013-01-23 03:55:00
11:15 PM,14.5,-1.7,49,30.31,10.0,WNW,6.9,-,N/A,,Clear,290,2013-01-23 04:15:00
11:35 PM,14.7,-1.5,49,30.30,10.0,WNW,5.8,-,N/A,,Mostly Cloudy,300,2013-01-23 04:35:00
11:55 PM,14.4,-1.3,50,30.31,10.0,West,5.8,-,N/A,,Mostly Cloudy,280,2013-01-23 04:55:00